| time (UTC) | temp C | wind direction | speed KPH | gust KPH | rain 1hr cm | rain 24hr cm | rain mn cm | humidity % | barometer mb |
| 20260504215545 | 25 | 274 | 1.6 | 4.8 | 0.00 | 0.00 | 0.00 | 42 | 1017.0 |
| 20260504213547 | 25 | 125 | 0.0 | 1.6 | 0.00 | 0.00 | 0.00 | 44 | 1017.1 |
| 20260504212545 | 25 | 225 | 3.2 | 6.4 | 0.00 | 0.00 | 0.00 | 44 | 1017.1 |
| 20260504211643 | 26 | 191 | 8.0 | 14.5 | 0.00 | 0.00 | 0.00 | 43 | 1017.3 |
| 20260504210645 | 26 | 218 | 1.6 | 4.8 | 0.00 | 0.00 | 0.00 | 44 | 1017.3 |
| 20260504205745 | 25 | 215 | 6.4 | 8.0 | 0.00 | 0.00 | 0.00 | 43 | 1017.1 |
| 20260504202746 | 25 | 200 | 6.4 | 11.3 | 0.00 | 0.00 | 0.00 | 45 | 1017.7 |
| 20260504201744 | 25 | 202 | 8.0 | 11.3 | 0.00 | 0.00 | 0.00 | 43 | 1017.8 |
| 20260504200744 | 25 | 199 | 4.8 | 9.7 | 0.00 | 0.00 | 0.00 | 43 | 1018.1 |
| 20260504195759 | 25 | 206 | 3.2 | 4.8 | 0.00 | 0.00 | 0.00 | 43 | 1018.3 |
| 20260504194745 | 25 | 348 | 1.6 | 4.8 | 0.00 | 0.00 | 0.00 | 43 | 1018.4 |
| 20260504193744 | 25 | 230 | 4.8 | 8.0 | 0.00 | 0.00 | 0.00 | 45 | 1018.7 |
| 20260504192843 | 24 | 207 | 6.4 | 9.7 | 0.00 | 0.00 | 0.00 | 45 | 1018.7 |
| 20260504191845 | 24 | 235 | 4.8 | 8.0 | 0.00 | 0.00 | 0.00 | 44 | 1018.9 |
| 20260504190943 | 25 | 243 | 4.8 | 9.7 | 0.00 | 0.00 | 0.00 | 45 | 1018.7 |
| 20260504184947 | 25 | 89 | 1.6 | 9.7 | 0.00 | 0.00 | 0.00 | 43 | 1019.1 |
| 20260504184844 | 25 | 241 | 3.2 | 9.7 | 0.00 | 0.00 | 0.00 | 44 | 1019.0 |
| 20260504183845 | 25 | 248 | 1.6 | 3.2 | 0.00 | 0.00 | 0.00 | 44 | 1019.3 |
| 20260504182942 | 24 | 31 | 3.2 | 9.7 | 0.00 | 0.00 | 0.00 | 46 | 1019.3 |
| 20260504181944 | 24 | 229 | 4.8 | 8.0 | 0.00 | 0.00 | 0.00 | 45 | 1019.3 |
| 20260504180944 | 24 | 218 | 6.4 | 8.0 | 0.00 | 0.00 | 0.00 | 44 | 1019.5 |
| 20260504180043 | 25 | 195 | 3.2 | 6.4 | 0.00 | 0.00 | 0.00 | 45 | 1019.4 |
| 20260504174145 | 24 | 199 | 6.4 | 11.3 | 0.00 | 0.00 | 0.00 | 45 | 1019.6 |
| 20260504173144 | 25 | 237 | 8.0 | 12.9 | 0.00 | 0.00 | 0.00 | 43 | 1019.6 |
| 20260504172159 | 24 | 95 | 3.2 | 4.8 | 0.00 | 0.00 | 0.00 | 42 | 1019.5 |
| 20260504170300 | 23 | 236 | 4.8 | 8.0 | 0.00 | 0.00 | 0.00 | 46 | 1019.7 |
| 20260504160445 | 25 | 180 | 0.0 | 4.8 | 0.00 | 0.00 | 0.00 | 43 | 1020.0 |
| 20260504150645 | 23 | 213 | 3.2 | 4.8 | 0.00 | 0.00 | 0.00 | 53 | 1020.2 |
| 20260504140943 | 23 | 218 | 0.0 | 1.6 | 0.00 | 0.00 | 0.00 | 66 | 1020.3 |
| 20260504120244 | 11 | 135 | 0.0 | 0.0 | 0.00 | 0.00 | 0.00 | 96 | 1019.9 |
| 20260504110544 | 11 | 135 | 0.0 | 0.0 | 0.00 | 0.00 | 0.00 | 96 | 1019.8 |
| 20260504081943 | 12 | 135 | 0.0 | 0.0 | 0.00 | 0.00 | 0.00 | 95 | 1019.7 |
| 20260504080943 | 12 | 135 | 0.0 | 0.0 | 0.00 | 0.00 | 0.00 | 95 | 1019.9 |
| 20260504060142 | 12 | 135 | 0.0 | 0.0 | 0.00 | 0.00 | 0.00 | 93 | 1020.8 |
| 20260504050243 | 12 | 135 | 0.0 | 0.0 | 0.00 | 0.00 | 0.00 | 92 | 1021.1 |
| 20260504045323 | 12 | 135 | 0.0 | 0.0 | 0.00 | 0.00 | 0.00 | 91 | 1021.2 |
| 20260504044324 | 12 | 135 | 0.0 | 0.0 | 0.00 | 0.00 | 0.00 | 91 | 1021.3 |
| 20260504043321 | 13 | 135 | 0.0 | 0.0 | 0.00 | 0.00 | 0.00 | 90 | 1021.2 |
| 20260504042322 | 13 | 135 | 0.0 | 0.0 | 0.00 | 0.00 | 0.00 | 90 | 1021.3 |
| 20260504041421 | 13 | 135 | 0.0 | 0.0 | 0.00 | 0.00 | 0.00 | 90 | 1021.3 |
| 20260504040422 | 13 | 135 | 0.0 | 0.0 | 0.00 | 0.00 | 0.00 | 90 | 1021.4 |
| 20260504035421 | 13 | 135 | 0.0 | 0.0 | 0.00 | 0.00 | 0.00 | 89 | 1021.4 |
| 20260504034521 | 13 | 135 | 0.0 | 0.0 | 0.00 | 0.00 | 0.00 | 89 | 1021.3 |
| 20260504033523 | 13 | 135 | 0.0 | 0.0 | 0.00 | 0.00 | 0.00 | 89 | 1021.2 |
| 20260504032522 | 13 | 135 | 0.0 | 0.0 | 0.00 | 0.00 | 0.00 | 87 | 1021.4 |
| 20260504031522 | 13 | 135 | 0.0 | 0.0 | 0.00 | 0.00 | 0.00 | 87 | 1021.4 |
| 20260504030520 | 13 | 135 | 0.0 | 0.0 | 0.00 | 0.00 | 0.00 | 86 | 1021.3 |
| 20260504025522 | 13 | 135 | 0.0 | 0.0 | 0.00 | 0.00 | 0.00 | 87 | 1021.3 |
| 20260504024523 | 14 | 135 | 0.0 | 0.0 | 0.00 | 0.00 | 0.00 | 85 | 1021.1 |
| 20260504023620 | 14 | 135 | 0.0 | 0.0 | 0.00 | 0.00 | 0.00 | 85 | 1021.1 |
| 20260504022621 | 14 | 135 | 0.0 | 0.0 | 0.00 | 0.00 | 0.00 | 83 | 1021.0 |
| 20260504021721 | 15 | 135 | 0.0 | 0.0 | 0.00 | 0.00 | 0.00 | 84 | 1021.0 |
| 20260504020820 | 15 | 135 | 0.0 | 0.0 | 0.00 | 0.00 | 0.00 | 82 | 1020.9 |
| 20260504015821 | 15 | 135 | 0.0 | 0.0 | 0.00 | 0.00 | 0.00 | 82 | 1020.6 |
| 20260504014823 | 15 | 135 | 0.0 | 0.0 | 0.00 | 0.00 | 0.00 | 81 | 1020.6 |
| 20260504013822 | 16 | 135 | 0.0 | 0.0 | 0.00 | 0.00 | 0.00 | 79 | 1020.6 |
| 20260504012822 | 16 | 135 | 0.0 | 0.0 | 0.00 | 0.00 | 0.00 | 80 | 1020.5 |
| 20260504005922 | 17 | 135 | 0.0 | 0.0 | 0.00 | 0.00 | 0.00 | 74 | 1020.3 |
| 20260504004023 | 18 | 173 | 0.0 | 0.0 | 0.00 | 0.00 | 0.00 | 69 | 1020.2 |
| 20260504003022 | 20 | 180 | 0.0 | 0.0 | 0.00 | 0.00 | 0.00 | 69 | 1020.0 |
| 20260504002021 | 20 | 180 | 0.0 | 0.0 | 0.00 | 0.00 | 0.00 | 63 | 1020.1 |
| 20260504001021 | 21 | 180 | 0.0 | 0.0 | 0.00 | 0.00 | 0.00 | 58 | 1019.9 |
| 20260504000022 | 21 | 204 | 0.0 | 1.6 | 0.00 | 0.00 | 0.00 | 52 | 1019.9 |
| 20260503235121 | 22 | 187 | 1.6 | 3.2 | 0.00 | 0.00 | 0.00 | 51 | 1019.9 |
| 20260503234123 | 22 | 210 | 1.6 | 4.8 | 0.00 | 0.00 | 0.00 | 51 | 1020.1 |
| 20260503233122 | 22 | 216 | 3.2 | 4.8 | 0.00 | 0.00 | 0.00 | 49 | 1020.2 |
| 20260503232121 | 22 | 180 | 4.8 | 9.7 | 0.00 | 0.00 | 0.00 | 47 | 1020.2 |
| 20260503231122 | 22 | 207 | 4.8 | 8.0 | 0.00 | 0.00 | 0.00 | 47 | 1020.2 |
| 20260503230121 | 23 | 203 | 4.8 | 6.4 | 0.00 | 0.00 | 0.00 | 45 | 1020.1 |
| 20260503225121 | 23 | 225 | 1.6 | 4.8 | 0.00 | 0.00 | 0.00 | 44 | 1020.1 |
| 20260503224121 | 24 | 178 | 0.0 | 1.6 | 0.00 | 0.00 | 0.00 | 42 | 1020.3 |
| 20260503223120 | 24 | 240 | 3.2 | 6.4 | 0.00 | 0.00 | 0.00 | 42 | 1020.3 |
| 20260503222220 | 25 | 172 | 4.8 | 9.7 | 0.00 | 0.00 | 0.00 | 42 | 1020.3 |
| 20260503221221 | 24 | 160 | 0.0 | 1.6 | 0.00 | 0.00 | 0.00 | 44 | 1020.3 |
| 20260503220221 | 23 | 216 | 4.8 | 8.0 | 0.00 | 0.00 | 0.00 | 43 | 1020.4 |